Flag Weather past 2 weeks in Mountain View, California, U.S.A.

Now
49 °F

Sunny.


Feels Like: 49 °F
Forecast: 45 / 72 °F
Wind: No wind

Location: Moffett Field

Current Time: Nov 26, 2014 at 8:53:48 AM

Latest Report: Nov 26, 2014 at 7:56 AM


Visibility: 7 mi

Pressure: 30.33 "Hg

Humidity: 90%

Dew point: 46 °F

Location of Mountain ViewLocation

Historic Weather in Mountain View — Graph

°F

Mountain View temperature yesterday

Maximum temperature yesterday: 67 °F (at 1:56 PM)
Minimum temperature yesterday: 44 °F (at 4:56 AM)
Average temperature yesterday: 54 °F

Past Weeks' High & Low Weather Summary

 TemperatureHumidityPressure
High69 °F (Nov 11, 2:56 PM)100% (Nov 13, 12:56 AM)30.47 "Hg (Nov 13, 12:56 AM)
Low44 °F (Nov 24, 3:56 AM)15% (Nov 16, 10:56 AM)29.91 "Hg (Nov 11, 12:56 PM)
Average57 °F70%30.16 "Hg
* Reported Nov 11 6:56 AM — Nov 26 6:56 AM, Mountain View, Weather by CustomWeather, © 2014

Note: Actual official high and low records may vary slightly from our data, if they occured in-between our weather recording intervals... More about our weather records

Advertising

Mountain View weather history for previous 24 hours

 ConditionsComfort  
Time TempWeatherWind HumidityBarometerVisibility
6:56 AM
Nov 26
45 °FClear.No wind90%30.31 "Hg10 mi
5:56 AM45 °FClear.No wind90%30.32 "Hg10 mi
4:56 AM46 °FClear.No wind89%30.32 "Hg10 mi
3:56 AM45 °FClear.No wind90%30.32 "Hg10 mi
2:56 AM47 °FClear.No wind86%30.32 "Hg10 mi
1:56 AM47 °FClear.No wind86%30.32 "Hg10 mi
12:56 AM48 °FClear.No wind86%30.32 "Hg10 mi
11:56 PM
Nov 25
48 °FClear.No wind89%30.35 "Hg10 mi
10:56 PM51 °FClear.No wind83%30.35 "Hg10 mi
9:56 PM53 °FClear.No wind83%30.37 "Hg10 mi
8:56 PM54 °FClear.No wind83%30.36 "Hg10 mi
7:56 PM56 °FClear.No wind77%30.37 "Hg9 mi
6:56 PM58 °FClear.No wind75%30.36 "Hg10 mi
5:56 PM58 °FClear.6 mph62%30.36 "Hg10 mi
4:56 PM63 °FClear.No wind52%30.36 "Hg10 mi
3:56 PM66 °FSunny.3 mph45%30.37 "Hg10 mi
2:56 PM66 °FSunny.No wind43%30.37 "Hg10 mi
1:56 PM67 °FSunny.5 mph41%30.38 "Hg10 mi
12:56 PM66 °FSunny.No wind34%30.40 "Hg10 mi
11:56 AM61 °FSunny.No wind41%30.43 "Hg10 mi
10:56 AM60 °FSunny.No wind38%30.45 "Hg10 mi
9:56 AM56 °FSunny.3 mph55%30.47 "Hg10 mi
8:56 AM53 °FSunny.No wind61%30.47 "Hg10 mi
Weather by CustomWeather, © 2014

See weather overviewHow to use our weather pages